Date,TemperatureHighF,TemperatureAvgF,TemperatureLowF,DewpointHighF,DewpointAvgF,DewpointLowF,HumidityHigh,HumidityAvg,HumidityLow,PressureMaxIn,PressureMinIn,WindSpeedMaxMPH,WindSpeedAvgMPH,GustSpeedMaxMPH,PrecipitationSumIn
2013-2-1,70.0,52.5,41.0,45.0,39.3,34.0,94,64,27,30.36,30.22,2,0,8,0.01
2013-2-2,73.0,54.1,40.0,54.0,46.3,38.0,98,78,48,30.32,30.16,1,0,6,0.00
2013-2-3,73.0,56.5,45.0,51.0,46.6,41.0,97,73,40,30.22,30.08,3,0,10,0.00
2013-2-4,73.0,54.5,40.0,52.0,45.7,38.0,98,75,44,30.16,30.04,1,0,5,0.00
2013-2-5,81.0,57.6,40.0,56.0,48.8,39.0,98,77,35,30.13,30.02,2,0,8,0.00
2013-2-6,79.0,65.4,53.0,67.0,60.0,52.0,97,84,57,30.14,30.05,1,0,4,0.00
2013-2-7,82.0,69.4,59.0,68.0,62.9,58.0,98,82,55,30.11,29.91,2,0,8,0.00
2013-2-8,82.0,68.0,58.0,65.0,61.1,56.0,98,81,42,30.08,29.88,3,0,10,0.00
2013-2-9,75.0,63.2,52.0,61.0,57.5,52.0,99,84,59,30.21,30.07,2,0,8,0.00
2013-2-10,77.0,67.0,60.0,61.0,58.5,56.0,93,76,57,30.29,30.20,2,0,8,0.00
2013-2-11,86.0,69.6,58.0,66.0,61.7,57.0,98,79,45,30.24,30.10,2,0,9,0.00
2013-2-12,87.0,72.1,59.0,69.0,64.6,58.0,99,80,49,30.13,29.95,3,0,9,0.00
2013-2-13,89.0,74.3,63.0,71.0,66.8,60.0,98,80,46,29.99,29.84,4,1,15,0.01
2013-2-14,70.0,62.5,59.0,66.0,61.1,58.0,99,95,85,30.06,29.95,1,0,6,1.03
2013-2-15,71.0,60.8,55.0,62.0,58.6,55.0,99,93,69,30.09,29.97,1,0,4,0.41
2013-2-16,70.0,58.6,48.0,58.0,48.0,33.0,98,71,39,30.09,29.90,6,1,17,0.01
2013-2-17,57.0,44.6,34.0,39.0,26.2,18.0,92,52,24,30.37,30.10,2,1,9,0.00
2013-2-18,67.0,49.6,33.0,52.0,41.1,29.0,95,75,50,30.38,30.27,2,0,6,0.00
2013-2-19,79.0,62.4,47.0,60.0,53.0,46.0,97,75,44,30.27,30.08,4,1,12,0.00
2013-2-20,75.0,62.9,52.0,63.0,58.0,51.0,98,85,66,30.16,30.04,1,0,6,0.00
2013-2-21,82.0,68.4,57.0,68.0,63.0,56.0,99,84,58,30.13,30.03,1,0,5,0.00
2013-2-22,83.0,70.8,59.0,73.0,67.1,58.0,100,89,67,30.12,30.02,2,0,6,0.00
2013-2-23,90.0,74.4,65.0,72.0,67.4,64.0,99,82,45,30.05,29.88,3,1,9,0.01
2013-2-24,84.0,71.2,67.0,71.0,67.5,65.0,98,89,59,29.99,29.91,3,0,9,0.01
2013-2-25,88.0,74.1,66.0,74.0,67.7,65.0,100,83,50,29.94,29.80,2,0,8,0.00
2013-2-26,84.0,74.8,66.0,73.0,69.4,63.0,96,84,59,29.88,29.76,4,1,16,0.00
2013-2-27,77.0,66.5,57.0,64.0,59.4,54.0,98,80,52,29.98,29.87,3,0,7,0.00
2013-2-28,77.0,62.0,49.0,53.0,49.0,43.0,96,66,37,30.02,29.88,2,0,8,0.00